+ View the NASA Portal
+ Center for Near-Earth Object Studies
IMPORTANT:
The SSD Announcement email list is now available. Major changes are coming in the near future, including possible hostname and/or URL changes. To be notified of such changes, subscribe to this email list.
Please visit
this page
for more details.
Don't show this message again
JPL Small-Body Database Browser
Search:
[
help
]
243163 (2007 TK94)
Classification:
Main-belt Asteroid
SPK-ID:
2243163
[
Ephemeris
|
Orbit Diagram
|
Orbital Elements
|
Mission Design
|
Physical Parameters
|
Discovery Circumstances
|
Close-Approach Data
]
[ show orbit diagram ]
Orbital Elements at Epoch 2458600.5 (2019-Apr-27.0) TDB
Reference:
JPL 10
(heliocentric ecliptic J2000)
Element
Value
Uncertainty (1-sigma)
Units
e
.2451915914972279
5.2348e-08
a
2.408090800210381
1.5061e-08
au
q
1.817647184436965
1.262e-07
au
i
4.137958214662013
6.4292e-06
deg
node
260.0626079588159
6.7483e-05
deg
peri
57.22691916914886
6.8604e-05
deg
M
66.44434371041389
9.6257e-06
deg
t
p
2458348.579662164148
(2018-Aug-18.07966216)
3.6719e-05
TDB
period
1364.921625476039
3.74
1.2805e-05
3.506e-08
d
yr
n
.2637514076124657
2.4744e-09
deg/d
Q
2.998534415983798
1.8754e-08
au
Orbit Determination Parameters
# obs. used (total)
237
data-arc span
6531 days (17.88 yr)
first obs. used
2000-11-24
last obs. used
2018-10-12
planetary ephem.
DE431
SB-pert. ephem.
SB431-N16
condition code
0
norm. resid. RMS
.56925
source
ORB
producer
Otto Matic
solution date
2018-Oct-31 04:10:24
Additional Information
Earth MOID
= .807431 au
Jupiter MOID
= 2.31923 au
T_jup
= 3.476
[ show covariance matrix ]
[
Ephemeris
|
Orbit Diagram
|
Orbital Elements
|
Mission Design
|
Physical Parameters
|
Discovery Circumstances
|
Close-Approach Data
]
Physical Parameter Table
Parameter
Symbol
Value
Units
Sigma
Reference
Notes
absolute magnitude
H
17.1
n/a
MPO454783
diameter
diameter
2.706
km
0.574
urn:nasa:pds:neowise_diameters_albedos::2.0[mainbelt] (http://adsabs.harvard.edu/abs/2011ApJ...741...68M)
geometric albedo
albedo
0.038
0.013
urn:nasa:pds:neowise_diameters_albedos::2.0[mainbelt] (http://adsabs.harvard.edu/abs/2011ApJ...741...68M)
243163 (2007 TK94)
Discovered 2007-Oct-07 by CSS at Catalina
Reference:
20100626/Numbers.arc
Last Updated:
2010-06-28
[ show close-approach data ]
[
Ephemeris
|
Orbit Diagram
|
Orbital Elements
|
Mission Design
|
Physical Parameters
|
Discovery Circumstances
|
Close-Approach Data
]
2019-Dec-13 05:51 UT
(server date/time)
Site Manager:
Ryan S. Park
Webmaster
:
Alan B. Chamberlin